Huntington, WV

10:48 PM EST on December 12, 2017 (GMT -0500)
Tri-State / Ferguson

Weather History for KHTS - April, 2013

Change the Weather History Date:

Friday, April 19, 2013

  Actual Average Record
Temperature  
Mean Temperature 60 °F 57 °F  
Max Temperature 75 °F 69 °F 89 °F (1976)
Min Temperature 44 °F 46 °F 27 °F (1983)
Degree Days  
Heating Degree Days 5 9  
Month to date heating degree days 154 213  
Since 1 July heating degree days 4330 4310  
Cooling Degree Days 0 1  
Month to date cooling degree days 43 18  
Year to date cooling degree days 43 23  
Growing Degree Days 8 (Base 50)    
Moisture  
Dew Point 45 °F    
Average Humidity 67    
Maximum Humidity 87    
Minimum Humidity 46    
Precipitation  
Precipitation 0.33 in 0.11 in 2.40 in (1901)
Month to date precipitation 2.07 2.11  
Year to date precipitation 11.64 12.05  
Snow  
Snow 0.00 in - - ()
Month to date snowfall 0.0  
Since 1 September snowfall 12.4  
Snow Depth 0.00 in    
Sea Level Pressure  
Sea Level Pressure 29.75 in    
Wind  
Wind Speed 12 mph (SW)    
Max Wind Speed 25 mph    
Max Gust Speed 33 mph    
Visibility 8 miles    
Events Rain    
T = Trace of Precipitation, MM = Missing Value Source: NWS Daily Summary

Daily Weather History Graph

Daily Weather History Graph

Search for Another Location

Airport or City:

Trip Planner

Search our weather history database for the weather conditions in past years. The results will help you decide how hot, cold, wet, or windy it might be!

Date:

Astronomy

Apr. 19, 2013 Rise Set
Actual Time 6:48 AM EDT 8:10 PM EDT
Civil Twilight 6:20 AM EDT 8:38 PM EDT
Nautical Twilight 5:47 AM EDT 9:11 PM EDT
Astronomical Twilight 5:13 AM EDT 9:46 PM EDT
Moon 1:58 PM EDT (4/19) 2:58 AM EDT (4/19)
Length of Visible Light 14h 17m
Length of Day
13h 22m
First Quarter, 61% of the Moon is Illuminated
Apr 19
First Quarter
Apr 25
Full
May 2
Last Quarter
May 9
New
May 18
First Quarter

Hourly Weather History & Observations

Time (EDT) Temp. Windchill Dew Point Humidity Pressure Visibility Wind Dir Wind Speed Gust Speed Precip Events Conditions
12:51 AM 73.9 °F - 51.1 °F 45% 29.68 in 10.0 mi SSE 9.2 mph 17.3 mph N/A   Clear
1:51 AM 73.9 °F - 53.1 °F 48% 29.67 in 10.0 mi South 9.2 mph 20.7 mph N/A   Clear
2:51 AM 73.0 °F - 55.0 °F 53% 29.62 in 10.0 mi South 11.5 mph 20.7 mph N/A   Clear
3:51 AM 73.0 °F - 55.0 °F 53% 29.60 in 10.0 mi SSE 12.7 mph 19.6 mph N/A   Clear
4:51 AM 73.0 °F - 55.0 °F 53% 29.58 in 10.0 mi SSE 9.2 mph 19.6 mph N/A   Clear
5:51 AM 73.0 °F - 55.0 °F 53% 29.57 in 10.0 mi South 9.2 mph 18.4 mph N/A   Clear
6:51 AM 73.0 °F - 55.0 °F 53% 29.55 in 10.0 mi South 12.7 mph 21.9 mph N/A   Mostly Cloudy
7:51 AM 70.0 °F - 57.9 °F 65% 29.56 in 4.0 mi SSW 8.1 mph - 0.00 in Rain Light Rain
8:51 AM 64.9 °F - 61.0 °F 87% 29.54 in 4.0 mi SSE 9.2 mph - 0.08 in Rain Light Rain
9:18 AM 60.8 °F - 57.2 °F 88% 29.64 in 2.0 mi West 25.3 mph 33.4 mph 0.10 in Rain Heavy Rain
9:51 AM 55.0 °F - 52.0 °F 89% 29.66 in 6.0 mi West 16.1 mph 24.2 mph 0.19 in Rain Light Rain
10:51 AM 51.1 °F - 46.0 °F 83% 29.71 in 6.0 mi West 11.5 mph 26.5 mph 0.00 in Rain Light Rain
11:16 AM 50.0 °F - 46.4 °F 87% 29.74 in 6.0 mi West 12.7 mph 18.4 mph 0.00 in Rain Light Rain
11:38 AM 48.2 °F - 46.4 °F 93% 29.75 in 2.0 mi West 12.7 mph 28.8 mph 0.04 in Rain Light Rain
11:51 AM 48.0 °F - 45.0 °F 89% 29.74 in 2.5 mi West 9.2 mph 18.4 mph 0.05 in Rain Light Rain
12:13 PM 46.4 °F 40.7 °F 44.6 °F 93% 29.76 in 5.0 mi WSW 12.7 mph 21.9 mph 0.01 in Rain Light Rain
12:51 PM 46.9 °F - 44.1 °F 90% 29.76 in 8.0 mi West 15.0 mph 20.7 mph 0.01 in   Overcast
1:40 PM 46.4 °F 40.7 °F 41.0 °F 81% 29.80 in 10.0 mi WSW 12.7 mph 26.5 mph N/A   Overcast
1:51 PM 46.9 °F - 39.9 °F 77% 29.80 in 10.0 mi West 15.0 mph 29.9 mph N/A   Overcast
2:51 PM 48.9 °F - 37.9 °F 66% 29.81 in 10.0 mi SW 15.0 mph 27.6 mph N/A   Overcast
2:58 PM 50.0 °F - 39.2 °F 66% 29.82 in 10.0 mi SW 11.5 mph 24.2 mph N/A   Mostly Cloudy
3:51 PM 48.9 °F - 37.9 °F 66% 29.82 in 10.0 mi WSW 15.0 mph 20.7 mph N/A   Overcast
4:51 PM 50.0 °F - 37.0 °F 61% 29.84 in 10.0 mi WSW 12.7 mph 19.6 mph N/A   Overcast
5:51 PM 50.0 °F - 35.1 °F 57% 29.86 in 10.0 mi WSW 12.7 mph 20.7 mph N/A   Mostly Cloudy
6:51 PM 48.9 °F - 35.1 °F 59% 29.86 in 10.0 mi WSW 12.7 mph 18.4 mph N/A   Scattered Clouds
7:51 PM 48.0 °F - 33.1 °F 56% 29.89 in 10.0 mi West 10.4 mph 21.9 mph N/A   Overcast
8:51 PM 46.9 °F - 30.9 °F 54% 29.93 in 10.0 mi WSW 10.4 mph - N/A   Overcast
9:51 PM 46.0 °F 39.9 °F 30.9 °F 56% 29.96 in 10.0 mi West 13.8 mph 23.0 mph N/A   Overcast
10:51 PM 45.0 °F 39.7 °F 32.0 °F 60% 30.00 in 10.0 mi West 10.4 mph 16.1 mph N/A   Overcast
11:51 PM 44.1 °F 38.6 °F 30.0 °F 58% 30.03 in 10.0 mi West 10.4 mph 20.7 mph N/A   Overcast